Burbank, CA

3:01 PM PDT on August 20, 2017 (GMT -0700)
Burbank-Glendale-Pasadena

Weather History for KBUR - November, 2012

Change the Weather History Date:

Friday, November 9, 2012

  Actual Average Record
Temperature  
Mean Temperature 56 °F 61 °F  
Max Temperature 64 °F 75 °F 93 °F (1956)
Min Temperature 47 °F 48 °F 37 °F (1946)
Degree Days  
Heating Degree Days 9 4  
Month to date heating degree days 18 32  
Since 1 July heating degree days 31 81  
Cooling Degree Days 0 1  
Month to date cooling degree days 24 9  
Year to date cooling degree days 1666 1240  
Growing Degree Days 5 (Base 50)    
Moisture  
Dew Point 40 °F    
Average Humidity 56    
Maximum Humidity 77    
Minimum Humidity 34    
Precipitation  
Precipitation 0.00 in 0.03 in 1.07 in (1964)
Month to date precipitation 0.05 0.26  
Year to date precipitation 5.65 14.10  
Since 1 July precipitation 0.17  
Sea Level Pressure  
Sea Level Pressure 29.87 in    
Wind  
Wind Speed 5 mph (WSW)    
Max Wind Speed 20 mph    
Max Gust Speed 24 mph    
Visibility 10 miles    
Events      
T = Trace of Precipitation, MM = Missing Value Source: NWS Daily Summary

Daily Weather History Graph

Daily Weather History Graph

Search for Another Location

Airport or City:

Trip Planner

Search our weather history database for the weather conditions in past years. The results will help you decide how hot, cold, wet, or windy it might be!

Date:

Astronomy

Nov. 09, 2012 Rise Set
Actual Time 6:21 AM PST 4:53 PM PST
Civil Twilight 5:54 AM PST 5:19 PM PST
Nautical Twilight 5:24 AM PST 5:49 PM PST
Astronomical Twilight 4:55 AM PST 6:18 PM PST
Moon 1:37 AM PST (11/9) 1:58 PM PST (11/9)
Length of Visible Light 11h 24m
Length of Day
10h 31m
Waning Crescent, 22% of the Moon is Illuminated
Nov 9
Waning Crescent
Nov 13
New
Nov 20
First Quarter
Nov 28
Full
Dec 6
Last Quarter

Hourly Weather History & Observations

Time (PST) Temp. Dew Point Humidity Pressure Visibility Wind Dir Wind Speed Gust Speed Precip Events Conditions
12:53 AM 57.0 °F 50.0 °F 77% 29.85 in 10.0 mi Calm Calm - N/A   Overcast
1:17 AM 57.2 °F 48.2 °F 72% 29.87 in 10.0 mi Variable 3.5 mph - N/A   Overcast
1:53 AM 55.9 °F 45.0 °F 67% 29.85 in 10.0 mi West 6.9 mph - N/A   Scattered Clouds
2:31 AM 53.6 °F 42.8 °F 67% 29.88 in 10.0 mi West 5.8 mph - N/A   Mostly Cloudy
2:53 AM 54.0 °F 43.0 °F 66% 29.85 in 10.0 mi Calm Calm - N/A   Scattered Clouds
3:53 AM 54.0 °F 43.0 °F 66% 29.86 in 10.0 mi Calm Calm - N/A   Clear
4:53 AM 53.1 °F 44.1 °F 71% 29.86 in 10.0 mi Calm Calm - N/A   Scattered Clouds
5:53 AM 51.1 °F 44.1 °F 77% 29.87 in 10.0 mi Calm Calm - N/A   Mostly Cloudy
6:53 AM 52.0 °F 44.1 °F 74% 29.88 in 10.0 mi Calm Calm - N/A   Partly Cloudy
7:53 AM 54.0 °F 45.0 °F 72% 29.89 in 10.0 mi Calm Calm - N/A   Clear
8:53 AM 55.9 °F 39.9 °F 55% 29.89 in 10.0 mi SW 5.8 mph - N/A   Scattered Clouds
9:53 AM 57.9 °F 37.9 °F 47% 29.89 in 10.0 mi SSE 6.9 mph - N/A   Scattered Clouds
10:53 AM 59.0 °F 36.0 °F 42% 29.89 in 10.0 mi WSW 3.5 mph - N/A   Partly Cloudy
11:53 AM 61.0 °F 34.0 °F 36% 29.86 in 10.0 mi NE 4.6 mph - N/A   Clear
12:53 PM 61.0 °F 34.0 °F 36% 29.84 in 10.0 mi SSE 8.1 mph - N/A   Mostly Cloudy
1:53 PM 62.1 °F 35.1 °F 37% 29.82 in 10.0 mi South 8.1 mph - N/A   Mostly Cloudy
2:53 PM 62.1 °F 33.1 °F 34% 29.82 in 10.0 mi West 15.0 mph - N/A   Scattered Clouds
3:53 PM 60.1 °F 33.1 °F 36% 29.83 in 10.0 mi West 12.7 mph 18.4 mph N/A   Scattered Clouds
4:53 PM 57.0 °F 37.9 °F 49% 29.84 in 10.0 mi West 11.5 mph - N/A   Scattered Clouds
5:53 PM 55.9 °F 37.9 °F 51% 29.87 in 10.0 mi WNW 8.1 mph - N/A   Scattered Clouds
6:53 PM 54.0 °F 39.9 °F 59% 29.88 in 10.0 mi WSW 4.6 mph - N/A   Clear
7:53 PM 53.1 °F 39.0 °F 59% 29.89 in 10.0 mi SW 3.5 mph - N/A   Clear
8:53 PM 53.1 °F 39.0 °F 59% 29.90 in 10.0 mi Calm Calm - N/A   Clear
9:53 PM 48.9 °F 37.9 °F 66% 29.91 in 10.0 mi NW 3.5 mph - N/A   Clear
10:53 PM 48.0 °F 37.9 °F 68% 29.91 in 10.0 mi WNW 4.6 mph - N/A   Clear
11:53 PM 46.9 °F 37.0 °F 68% 29.91 in 10.0 mi NW 3.5 mph - N/A   Clear